GPS BIIF-9 (40534 NORAD) Tracking and Keplerian Element Data

This shows tracking and keplerian element data for the satellite.

Feedback or suggestion? Click here.




ElementValue
Catalog40534
NameGPS BIIF-9
Epoch Orbit2617
Epoch Day315.4707771
Epoch Year2018
RAAN318.8359
Inclination54.6599
Eccentricity0.0031785
Argument of Perigee358.2838
Mean Anonmoly1.718
Mean Motion2.00554979
Decay Rate-6E-07
L11 40534U 15013A 18315.47077710 -.00000060 00000-0 00000-0 0 9994
L22 40534 54.6599 318.8359 0031785 358.2838 1.7180 2.00554979 26178

Live tracking and technical data element details for GPS BIIF-9 (NORAD 40534). GPS BIIF-9 can be tracked NOW for your location showing map with azimuth and elevation plus other details from your city location.

Track the satellite on the map from your city or location and see movement details for azimuth, elevation, latitude, longitude, range, height, and movement on the map or in text.







IsCatalogInMostPopularTable: catalog: 40534, numindb: 117
Update: records affected: 1



GetName: 40534 GPS BIIF-9

Hit Count: updated at: Mon, 12 Nov 2018 18:13:36 GMT